Location: Lafig�re
(44.4503°N, 4.0357°E)
Time: 05:47:17
(UTC+00:00)

Vanguard 2 - Pass Details

Date: 23 January 2021
Orbit: 552 x 2938 km, 32.9° (Epoch: 01 March)

Event Time Altitude Azimuth Distance (km) Brightness Sun altitude
Rises 20:37:40 0° 255° (WSW) 3,235 11.4 -41.9°
Reaches altitude 10° 20:40:27 10° 237° (WSW) 2,560 10.5 -42.4°
Enters shadow 20:40:50 11° 234° (SW) 2,495 10.4 -42.5°
